Piney Island, NC

5:22 AM EDT on June 29, 2017 (GMT -0400)
Piney Island

Weather History for KNBT - February, 2014

Change the Weather History Date:

Saturday, February 15, 2014

  Actual Average (KMRH) Record (KMRH)
Temperature  
Mean Temperature 45 °F -  
Max Temperature 53 °F 59 °F 74 °F (1950)
Min Temperature 37 °F 38 °F 21 °F (1969)
Degree Days  
Heating Degree Days 20    
Moisture  
Dew Point 40 °F    
Average Humidity 76    
Maximum Humidity 93    
Minimum Humidity 47    
Precipitation  
Precipitation 0.00 in - - ()
Sea Level Pressure  
Sea Level Pressure 29.69 in    
Wind  
Wind Speed 13 mph (WSW)    
Max Wind Speed 25 mph    
Max Gust Speed 38 mph    
Averages and records for this station are not official NWS values.
T = Trace of Precipitation, MM = Missing Value Source: NWS Daily Summary

Daily Weather History Graph

Daily Weather History Graph

Search for Another Location

Airport or City:

Trip Planner

Search our weather history database for the weather conditions in past years. The results will help you decide how hot, cold, wet, or windy it might be!

Date:

Astronomy

Feb. 15, 2014 Rise Set
Actual Time 6:51 AM EST 5:48 PM EST
Civil Twilight 6:25 AM EST 6:14 PM EST
Nautical Twilight 5:56 AM EST 6:44 PM EST
Astronomical Twilight 5:26 AM EST 7:13 PM EST
Moon 6:42 PM EST (2/15) 6:52 AM EST (2/15)
Length of Visible Light 11h 48m
Length of Day
10h 56m
Full, 100% of the Moon is Illuminated
Feb 15
Full
Feb 22
Last Quarter
Mar 1
New
Mar 8
First Quarter
Mar 16
Full

Hourly Weather History & Observations

Time (EST) Temp. Windchill Dew Point Humidity Pressure Visibility Wind Dir Wind Speed Gust Speed Precip Events Conditions
12:56 AM 50.0 °F - 41.0 °F 71% 29.81 in - SW 10.4 mph - N/A   Clear
1:56 AM 48.9 °F - 39.9 °F 71% 29.75 in - SSW 4.6 mph - N/A   Clear
2:56 AM 46.9 °F - 39.9 °F 77% 29.74 in - South 4.6 mph - N/A   Clear
3:56 AM 48.9 °F - 42.1 °F 77% 29.71 in - West 8.1 mph - N/A   Scattered Clouds
4:56 AM 48.0 °F - 42.1 °F 80% 29.67 in - Calm Calm - N/A   Overcast
5:56 AM 46.9 °F - 43.0 °F 86% 29.63 in - SE 6.9 mph - N/A   Partly Cloudy
6:56 AM 48.9 °F - 45.0 °F 86% 29.62 in - SSE 6.9 mph - N/A   Mostly Cloudy
7:56 AM 52.0 °F - 45.0 °F 77% 29.57 in - South 5.8 mph - N/A   Mostly Cloudy
8:56 AM 51.1 °F - 48.0 °F 89% 29.56 in - SW 9.2 mph - N/A Rain Rain
9:47 AM 52.0 °F - 50.0 °F 93% 29.49 in - South 11.5 mph 19.6 mph N/A Rain Light Rain
9:56 AM 52.0 °F - 48.9 °F 89% 29.50 in - SSW 17.3 mph 27.6 mph N/A   Overcast
10:17 AM 53.1 °F - 48.9 °F 86% 29.49 in - SW 20.7 mph - N/A   Overcast
10:38 AM 48.9 °F - 46.9 °F 93% 29.50 in - West 18.4 mph - N/A Rain Rain
10:47 AM 48.9 °F - 46.9 °F 93% 29.51 in - West 18.4 mph 27.6 mph N/A Rain Light Rain
10:56 AM 51.1 °F - 48.0 °F 89% 29.52 in - WSW 20.7 mph 27.6 mph N/A   Mostly Cloudy
11:05 AM 51.1 °F - 48.0 °F 89% 29.51 in - West 19.6 mph 29.9 mph N/A   Overcast
11:29 AM 50.0 °F - 45.0 °F 83% 29.50 in - West 19.6 mph 25.3 mph N/A   Overcast
11:56 AM 48.0 °F - 42.1 °F 80% 29.53 in - WSW 25.3 mph 34.5 mph N/A   Overcast
12:56 PM 46.0 °F 37.8 °F 42.1 °F 86% 29.55 in - West 23.0 mph 33.4 mph N/A Rain Light Rain
1:56 PM 46.0 °F 38.5 °F 41.0 °F 83% 29.59 in - West 19.6 mph 31.1 mph N/A Rain Light Rain
2:56 PM 45.0 °F 36.0 °F 39.9 °F 82% 29.66 in - West 25.3 mph 38.0 mph N/A Rain Light Rain
3:43 PM 46.0 °F 37.8 °F 39.9 °F 79% 29.69 in - WNW 23.0 mph 29.9 mph N/A   Overcast
3:56 PM 46.0 °F 38.0 °F 39.0 °F 76% 29.71 in - WNW 21.9 mph 32.2 mph N/A   Overcast
4:09 PM 46.0 °F 37.6 °F 39.9 °F 79% 29.71 in - West 24.2 mph 29.9 mph N/A   Overcast
4:56 PM 46.9 °F - 36.0 °F 66% 29.78 in - WNW 20.7 mph 35.7 mph N/A   Overcast
5:56 PM 46.0 °F 39.0 °F 33.1 °F 61% 29.85 in - WNW 17.3 mph - N/A   Overcast
6:56 PM 44.1 °F 37.7 °F 33.1 °F 65% 29.90 in - WNW 12.7 mph - N/A   Clear
7:56 PM 43.0 °F 35.1 °F 27.0 °F 53% 29.94 in - WNW 17.3 mph 27.6 mph N/A   Clear
8:56 PM 41.0 °F 32.5 °F 25.0 °F 53% 29.97 in - WNW 17.3 mph - N/A   Clear
9:56 PM 39.9 °F 30.2 °F 21.0 °F 47% 30.03 in - WNW 20.7 mph 27.6 mph N/A   Clear
10:56 PM 37.9 °F 30.5 °F 21.9 °F 53% 30.03 in - WNW 11.5 mph - N/A   Clear
11:56 PM 37.0 °F 28.9 °F 21.0 °F 52% 30.04 in - NW 12.7 mph - N/A   Clear